星链-3263 (STARLINK-3263 )

导读

STARLINK-3263是美国SpaceX公司星链星座的一员,于2021年12月18日由猎鹰9火箭发射升空,属于星链第一代V1.5批次卫星。它运行在近地轨道,配备相控阵天线与氪离子推进系统,可提供全球高速卫星互联网接入,支持偏远地区宽带、移动互联与应急通信服务,设计寿命约5年,服役至今已超4年,目前仍在轨正常运行。

基本信息
目录编号:
50196
目录名称:
STARLINK-3263
国际标识:
2021-125AS
轨道中心:
EARTH
卫星名称:
星链-3263
卫星全名:
星链-3263 (STARLINK-3263 )
卫星状态:
已陨落 最后检测时间 2024-05-20
发射日期:
2021-12-18 UTC
国别 :
美国 (US)
星等 :
--
轨道信息
数据来源 国际轨道数据
星历时间: 2024-05-21T04:08:14+0800
轨道信息已过期754天
半长轴: 6544.987km
偏心率: 0.0009303
轨道倾角: 53.199°
近地点辐角 299.041°
升交点赤经 265.559°
平近点角 110.710°
近地点: 160.763km
远地点: 172.941km
周期: 87.826分钟
每日圈数: 16.396066
详细信息
固有亮度:
5
最大亮度:
2.5
卫星平台:
Starlink v1.5
覆盖范围:
全球
运营商:
太空探索技术公司
运营商所在国:
美国
制造商(研发单位):
太空探索技术公司
制造商所在国:
美国
使用方式:
暂无
卫星简介
星链(Starlink)计划是由太空探索技术公司(SpaceX)提出的一个巨型低轨卫星互联网星座项目,计划在2019年至2024年间在太空搭建由约1.2万颗卫星组成的“星链”网络,其中1584颗将部署在地球上空550千米处的近地轨道,并从2020年开始工作。该卫星已陨落。